Regional Weather Roundup
Issued by NWS

Home | Current Version | Previous Version | Graphics & Text | Print | Product List | Glossary On
Versions: 1 2 3 4 5 6 7 8 9 10 11 12 13 14 15 16 17 18 19 20 21 22 23 24 25 26 27 28 29 30 31 32 33 34 35 36 37 38 39 40 41 42 43 44 45 46 47 48 49 50
000
ASUS43 KTOP 261608
RWRKS

WEATHER ROUNDUP FOR KANSAS
NATIONAL WEATHER SERVICE GOODLAND KS
1100 AM CDT SAT JUL 26 2014

NOTE:  "FAIR" INDICATES FEW OR NO CLOUDS BELOW 12,000 FEET WITH NO
SIGNIFICANT WEATHER AND/OR OBSTRUCTIONS TO VISIBILITY.

KSZ001>006-013>018-027>032-041>047-261700-
NORTHWEST KANSAS

CITY           SKY/WX    TMP DP  RH WIND       PRES   REMARKS
GOODLAND       SUNNY     87  61  41 NW14      30.02R
HAYS           SUNNY     88  64  45 W9        29.89S
HILL CITY      SUNNY     88  65  46 CALM      29.90F
RUSSELL        SUNNY     89  67  47 N7        29.86S
$$

KSZ061>065-074>080-084>089-261700-
SOUTHWEST KANSAS

CITY           SKY/WX    TMP DP  RH WIND       PRES   REMARKS
DODGE CITY     MOSUNNY   87  65  47 W10       29.94R
ELKHART          N/A     88  55  32 W7          N/A
GARDEN CITY    SUNNY     87  65  47 W8        29.95S
GREAT BEND     MOSUNNY   91  61  35 W12       29.86S
LIBERAL        SUNNY     91  54  27 SW17      30.00S
PRATT          MOSUNNY   90  54  29 SW17G26   29.90S
$$

KSZ066>073-081>083-090>101-261700-
SOUTHEAST KANSAS

CITY           SKY/WX    TMP DP  RH WIND       PRES   REMARKS
CHANUTE        SUNNY     86  70  58 SW17G23   29.90R
COFFEYVILLE    SUNNY     89  72  56 S16       29.91F HX  96
HUTCHINSON     PTSUNNY   90  62  39 SW14      29.86F
MEDICINE LODGE   N/A     91  64  40 SW9       29.88F
NEWTON         CLOUDY    82  63  51 SW16      29.91S
PARSONS        SUNNY     88  71  57 S15       29.92S
WICHITA INTL   CLOUDY    86  66  51 SW14      29.88S
WICHITA JABRA  CLOUDY    86  66  51 S15       29.88S
WICHITA MCCONL CLOUDY    85  67  55 S14       29.89F
WINFIELD       MOSUNNY   88  69  53 SW14      29.91S
$$

KSZ007>012-019>026-033>040-048>060-102>105-261700-
NORTHEAST KANSAS

CITY           SKY/WX    TMP DP  RH WIND       PRES   REMARKS
CONCORDIA      MOSUNNY   89  73  59 VRB6      29.83F HX  97
EMPORIA        CLOUDY    87  66  49 SW13      29.87R
LAWRENCE       CLOUDY    85  68  56 S8        29.84S
MANHATTAN      CLOUDY    78  67  68 W10       29.84S
MARYSVILLE     CLOUDY    86  72  62 S7        29.80F
OLATHE IND     CLOUDY    86  69  56 SW15      29.86S
OLATHE EXE     CLOUDY    82  69  64 SW9       29.86S
SALINA         CLOUDY    84  62  47 W5        29.85R
TOPEKA BILLARD LGT RAIN  86  67  52 W9        29.84R
TOPEKA FORBES  CLOUDY    85  66  53 SW9       29.86R
$$



USA.gov is the U.S. government's official web portal to all federal, state and local government web resources and services.